Location: Aula-Vintri
(58.3875°N, 22.4322°E)
Time: 19:23:07
(UTC+00:00)

Cosmos 2369 Rocket - Pass Details

Date: 13 October 2019
Orbit: 830 x 851 km, 71.0° (Epoch: 11 November)

Event Time Altitude Azimuth Distance (km) Brightness Sun altitude
Exits shadow 23:32:59 28° 359° (N) 1,530 3.9 -37.5°
Drops below altitude 10° 23:36:41 10° 36° (NE) 2,458 5.3 -37.3°
Sets 23:39:26 0° 47° (NE) 3,391 6.2 -37.1°
